Location: Lynch Observatory
(39.9540°N, 75.1861°W)
Time: 14:06:56
(UTC-04:00)

CAS-6 - Visible Passes

Search period start: 22 April 2024 00:00
Search period end: 02 May 2024 00:00
Orbit: 607 x 629 km, 97.8° (Epoch: 22 April)

Date Brightness Start Highest point End Pass type
(mag) Time Alt. Az. Time Alt. Az. Time Alt. Az.
22 Apr ? 22:01:31 13° NE 22:01:31 13° NE 22:02:46 10° NNE visible
22 Apr ? 23:38:38 23° NNW 23:38:38 23° NNW 23:40:21 10° NNW visible
23 Apr ? 22:18:19 18° NE 22:18:19 18° NE 22:20:14 10° NNE visible
23 Apr ? 23:55:26 18° NW 23:55:26 18° NW 23:56:48 10° NNW visible
24 Apr ? 22:35:06 24° NE 22:35:06 24° NE 22:37:21 10° N visible
25 Apr ? 00:12:14 14° NW 00:12:14 14° NW 00:13:03 10° NW visible
25 Apr ? 22:51:54 29° NNE 22:51:54 29° NNE 22:54:18 10° N visible
26 Apr ? 23:08:40 33° N 23:08:40 33° N 23:11:05 10° N visible
27 Apr ? 21:48:20 10° ENE 21:48:20 10° ENE 21:48:40 10° NE visible
27 Apr ? 23:25:26 31° NNW 23:25:26 31° NNW 23:27:45 10° NNW visible
28 Apr ? 22:05:06 15° NE 22:05:06 15° NE 22:06:59 10° NNE visible
28 Apr ? 23:42:13 26° NW 23:42:13 26° NW 23:44:17 10° NNW visible
29 Apr ? 22:21:51 21° NE 22:21:51 21° NE 22:24:18 10° NNE visible
29 Apr ? 23:58:58 20° NW 23:58:58 20° NW 00:00:40 10° NW visible
30 Apr ? 22:38:37 28° NE 22:38:37 28° NE 22:41:20 10° N visible
01 May ? 00:15:43 14° WNW 00:15:43 14° WNW 00:16:47 10° NW visible
01 May ? 22:55:22 36° NNE 22:55:22 36° NNE 22:58:12 10° N visible
